Location: Guferjoch
(46.7462°N, 8.4506°E)
Time: 13:19:22
(UTC+00:00)

Cosmos 468 Rocket - Pass Details

Date: 14 July 2020
Orbit: 743 x 780 km, 74.0° (Epoch: 06 August)

Event Time Altitude Azimuth Distance (km) Brightness Sun altitude
Rises 02:33:35 0° 335° (NNW) 3,267 7.6 -10.3°
Reaches altitude 10° 02:35:59 10° 333° (NNW) 2,338 6.8 -10.0°
Maximum altitude 02:41:15 65° 252° (WSW) 855 4.0 -9.4°
Drops below altitude 10° 02:46:29 10° 172° (S) 2,328 6.2 -8.8°
Sets 02:48:52 0° 169° (S) 3,250 6.9 -8.5°
